Location: Bakov nad Jizerou
(50.4784°N, 14.9394°E)
Time: 17:08:00
(UTC+00:00)

Cosmos 2322 - Pass Details

Date: 28 October 2021
Orbit: 841 x 854 km, 71.0° (Epoch: 04 December)

Event Time Altitude Azimuth Distance (km) Brightness Sun altitude
Exits shadow 04:42:44 11° 299° (WNW) 2,402 5.5 -10.3°
Maximum altitude 04:46:07 18° 261° (W) 1,959 5.0 -9.8°
Drops below altitude 10° 04:49:49 10° 220° (SW) 2,464 5.8 -9.2°
Sets 04:52:59 0° 202° (SSW) 3,392 6.7 -8.7°
